Time,TemperatureF,DewpointF,PressureIn,WindDirection,WindDirectionDegrees,WindSpeedMPH,WindSpeedGustMPH,Humidity,HourlyPrecipIn,Conditions,Clouds,dailyrainin,SoftwareType,DateUTC
2013-04-12 00:14:00,76.4,74.0,29.83,South,171,6.0,-999.0,91,-99.99,,,0.00,weatherlink.com 1.10,2013-04-12 04:14:00,
2013-04-12 00:29:00,76.2,74.0,29.83,SSE,152,6.0,-999.0,91,-99.99,,,0.00,weatherlink.com 1.10,2013-04-12 04:29:00,
2013-04-12 00:44:00,76.0,73.0,29.84,SSE,168,11.0,-999.0,91,-99.99,,,0.00,weatherlink.com 1.10,2013-04-12 04:44:00,
2013-04-12 00:59:00,75.6,73.0,29.83,South,177,14.0,-999.0,92,-99.99,,,0.00,weatherlink.com 1.10,2013-04-12 04:59:00,
2013-04-12 01:14:00,75.7,73.0,29.83,South,170,11.0,-999.0,92,-99.99,,,0.00,weatherlink.com 1.10,2013-04-12 05:14:00,
2013-04-12 01:29:00,76.0,74.0,29.83,SSW,194,7.0,-999.0,92,-99.99,,,0.00,weatherlink.com 1.10,2013-04-12 05:29:00,
2013-04-12 01:44:00,76.2,74.0,29.83,SSE,155,4.0,-999.0,91,-99.99,,,0.00,weatherlink.com 1.10,2013-04-12 05:44:00,
2013-04-12 01:59:00,76.4,74.0,29.84,SSE,156,9.0,-999.0,91,-99.99,,,0.00,weatherlink.com 1.10,2013-04-12 05:59:00,
2013-04-12 02:14:00,76.3,74.0,29.83,SSE,148,5.0,-999.0,92,-99.99,,,0.00,weatherlink.com 1.10,2013-04-12 06:14:00,
2013-04-12 02:29:00,76.4,74.0,29.82,SSE,166,6.0,-999.0,92,-99.99,,,0.00,weatherlink.com 1.10,2013-04-12 06:29:00,
2013-04-12 02:44:00,76.5,74.0,29.82,SSE,165,7.0,-999.0,92,-99.99,,,0.00,weatherlink.com 1.10,2013-04-12 06:44:00,
2013-04-12 02:59:00,76.5,74.0,29.83,SSE,163,9.0,-999.0,92,-99.99,,,0.00,weatherlink.com 1.10,2013-04-12 06:59:00,
2013-04-12 03:14:00,76.6,74.0,29.82,SSE,152,13.0,-999.0,92,-99.99,,,0.00,weatherlink.com 1.10,2013-04-12 07:14:00,
2013-04-12 03:29:00,76.4,74.0,29.81,SSE,167,13.0,-999.0,92,-99.99,,,0.00,weatherlink.com 1.10,2013-04-12 07:29:00,
2013-04-12 03:44:00,76.5,74.0,29.82,SSE,163,9.0,-999.0,92,-99.99,,,0.00,weatherlink.com 1.10,2013-04-12 07:44:00,
2013-04-12 03:59:00,76.4,74.0,29.82,SE,138,9.0,-999.0,92,-99.99,,,0.00,weatherlink.com 1.10,2013-04-12 07:59:00,
2013-04-12 04:14:00,76.4,74.0,29.82,South,183,11.0,-999.0,93,-99.99,,,0.00,weatherlink.com 1.10,2013-04-12 08:14:00,
2013-04-12 04:29:00,76.5,74.0,29.83,SSW,210,11.0,-999.0,92,-99.99,,,0.00,weatherlink.com 1.10,2013-04-12 08:29:00,
2013-04-12 04:44:00,76.4,74.0,29.83,South,169,10.0,-999.0,92,-99.99,,,0.00,weatherlink.com 1.10,2013-04-12 08:44:00,
2013-04-12 04:59:00,76.2,74.0,29.82,SSE,164,8.0,-999.0,92,-99.99,,,0.00,weatherlink.com 1.10,2013-04-12 08:59:00,
2013-04-12 05:14:00,76.0,74.0,29.82,SSE,159,7.0,-999.0,93,-99.99,,,0.00,weatherlink.com 1.10,2013-04-12 09:14:00,
2013-04-12 05:29:00,75.9,74.0,29.81,South,178,6.0,-999.0,93,-99.99,,,0.00,weatherlink.com 1.10,2013-04-12 09:29:00,
2013-04-12 05:44:00,76.1,74.0,29.81,SSE,150,10.0,-999.0,93,-99.99,,,0.00,weatherlink.com 1.10,2013-04-12 09:44:00,
2013-04-12 05:59:00,75.9,74.0,29.80,SSE,153,3.0,-999.0,93,-99.99,,,0.00,weatherlink.com 1.10,2013-04-12 09:59:00,
2013-04-12 06:14:00,76.0,74.0,29.81,SSE,157,5.0,-999.0,93,-99.99,,,0.00,weatherlink.com 1.10,2013-04-12 10:14:00,
2013-04-12 06:29:00,76.2,74.0,29.81,South,180,4.0,-999.0,93,-99.99,,,0.00,weatherlink.com 1.10,2013-04-12 10:29:00,
2013-04-12 06:44:00,76.2,74.0,29.81,SSE,167,4.0,-999.0,93,-99.99,,,0.00,weatherlink.com 1.10,2013-04-12 10:44:00,
2013-04-12 06:59:00,76.3,74.0,29.83,South,173,4.0,-999.0,93,-99.99,,,0.00,weatherlink.com 1.10,2013-04-12 10:59:00,
2013-04-12 07:14:00,76.3,74.0,29.84,SE,142,9.0,-999.0,93,-99.99,,,0.00,weatherlink.com 1.10,2013-04-12 11:14:00,
2013-04-12 07:29:00,76.2,74.0,29.84,SSE,153,7.0,-999.0,93,-99.99,,,0.00,weatherlink.com 1.10,2013-04-12 11:29:00,
2013-04-12 07:44:00,76.1,74.0,29.84,South,186,10.0,-999.0,93,-99.99,,,0.00,weatherlink.com 1.10,2013-04-12 11:44:00,
2013-04-12 07:59:00,76.0,74.0,29.84,South,175,9.0,-999.0,93,-99.99,,,0.00,weatherlink.com 1.10,2013-04-12 11:59:00,
2013-04-12 08:14:00,76.0,74.0,29.84,South,178,8.0,-999.0,94,-99.99,,,0.00,weatherlink.com 1.10,2013-04-12 12:14:00,
2013-04-12 08:29:00,76.1,74.0,29.84,South,169,12.0,-999.0,93,-99.99,,,0.00,weatherlink.com 1.10,2013-04-12 12:29:00,
2013-04-12 08:44:00,76.0,74.0,29.84,SSE,149,7.0,-999.0,93,-99.99,,,0.00,weatherlink.com 1.10,2013-04-12 12:44:00,
2013-04-12 08:59:00,75.9,74.0,29.85,SSW,192,6.0,-999.0,94,-99.99,,,0.00,weatherlink.com 1.10,2013-04-12 12:59:00,
2013-04-12 09:14:00,75.7,74.0,29.85,SSE,166,11.0,-999.0,94,-99.99,,,0.00,weatherlink.com 1.10,2013-04-12 13:14:00,
2013-04-12 09:29:00,75.5,74.0,29.86,South,183,11.0,-999.0,94,-99.99,,,0.00,weatherlink.com 1.10,2013-04-12 13:29:00,
2013-04-12 09:44:00,75.4,74.0,29.86,South,172,3.0,-999.0,94,-99.99,,,0.00,weatherlink.com 1.10,2013-04-12 13:44:00,
2013-04-12 09:59:00,75.3,74.0,29.86,SSE,150,10.0,-999.0,95,-99.99,,,0.00,weatherlink.com 1.10,2013-04-12 13:59:00,
2013-04-12 10:14:00,75.3,74.0,29.86,SSW,199,10.0,-999.0,95,-99.99,,,0.00,weatherlink.com 1.10,2013-04-12 14:14:00,
2013-04-12 10:29:00,75.3,74.0,29.87,SSE,162,8.0,-999.0,95,-99.99,,,0.00,weatherlink.com 1.10,2013-04-12 14:29:00,
2013-04-12 10:44:00,75.4,74.0,29.87,SSE,157,7.0,-999.0,94,-99.99,,,0.00,weatherlink.com 1.10,2013-04-12 14:44:00,
2013-04-12 10:59:00,75.6,74.0,29.87,SSW,203,5.0,-999.0,94,-99.99,,,0.00,weatherlink.com 1.10,2013-04-12 14:59:00,
2013-04-12 11:14:00,75.7,74.0,29.88,SSW,192,5.0,-999.0,94,-99.99,,,0.00,weatherlink.com 1.10,2013-04-12 15:14:00,
2013-04-12 11:29:00,75.7,74.0,29.88,SSE,164,6.0,-999.0,94,-99.99,,,0.00,weatherlink.com 1.10,2013-04-12 15:29:00,
2013-04-12 11:44:00,75.9,74.0,29.88,South,178,4.0,-999.0,93,-99.99,,,0.00,weatherlink.com 1.10,2013-04-12 15:44:00,
2013-04-12 11:59:00,75.9,74.0,29.88,South,177,9.0,-999.0,93,-99.99,,,0.00,weatherlink.com 1.10,2013-04-12 15:59:00,
2013-04-12 12:14:00,75.7,74.0,29.88,South,177,11.0,-999.0,94,-99.99,,,0.00,weatherlink.com 1.10,2013-04-12 16:14:00,
2013-04-12 12:29:00,75.7,74.0,29.87,SSW,200,6.0,-999.0,93,-99.99,,,0.00,weatherlink.com 1.10,2013-04-12 16:29:00,
2013-04-12 12:44:00,75.6,74.0,29.88,SSE,168,10.0,-999.0,93,-99.99,,,0.00,weatherlink.com 1.10,2013-04-12 16:44:00,
2013-04-12 12:59:00,75.5,74.0,29.87,South,183,4.0,-999.0,94,-99.99,,,0.00,weatherlink.com 1.10,2013-04-12 16:59:00,
2013-04-12 13:14:00,75.3,74.0,29.86,SSW,199,4.0,-999.0,94,-99.99,,,0.00,weatherlink.com 1.10,2013-04-12 17:14:00,
2013-04-12 13:29:00,75.1,73.0,29.86,SSE,165,9.0,-999.0,94,-99.99,,,0.00,weatherlink.com 1.10,2013-04-12 17:29:00,
2013-04-12 13:44:00,75.0,74.0,29.87,SSW,206,5.0,-999.0,95,-99.99,,,0.00,weatherlink.com 1.10,2013-04-12 17:44:00,
2013-04-12 13:59:00,74.9,73.0,29.88,South,187,6.0,-999.0,95,-99.99,,,0.00,weatherlink.com 1.10,2013-04-12 17:59:00,
2013-04-12 14:14:00,74.9,73.0,29.88,SW,219,2.0,-999.0,95,-99.99,,,0.00,weatherlink.com 1.10,2013-04-12 18:14:00,
2013-04-12 14:29:00,74.7,73.0,29.87,South,182,5.0,-999.0,94,-99.99,,,0.00,weatherlink.com 1.10,2013-04-12 18:29:00,
2013-04-12 15:29:00,74.3,73.0,29.83,SSW,200,1.0,-999.0,95,-99.99,,,0.00,weatherlink.com 1.10,2013-04-12 19:29:00,
2013-04-12 15:44:00,74.4,73.0,29.82,South,170,6.0,-999.0,96,-99.99,,,0.00,weatherlink.com 1.10,2013-04-12 19:44:00,
2013-04-12 15:59:00,74.5,73.0,29.82,SW,219,6.0,-999.0,96,-99.99,,,0.00,weatherlink.com 1.10,2013-04-12 19:59:00,
2013-04-12 16:15:00,74.7,74.0,29.80,South,179,13.0,-999.0,96,-99.99,,,0.00,weatherlink.com 1.10,2013-04-12 20:15:00,
2013-04-12 16:29:00,74.8,73.0,29.78,South,169,12.0,-999.0,95,-99.99,,,0.00,weatherlink.com 1.10,2013-04-12 20:29:00,
2013-04-12 16:44:00,75.1,74.0,29.79,SSW,194,3.0,-999.0,95,-99.99,,,0.00,weatherlink.com 1.10,2013-04-12 20:44:00,
2013-04-12 16:59:00,75.0,74.0,29.80,South,182,12.0,-999.0,95,-99.99,,,0.00,weatherlink.com 1.10,2013-04-12 20:59:00,
2013-04-12 17:14:00,75.3,74.0,29.78,South,178,9.0,-999.0,95,-99.99,,,0.00,weatherlink.com 1.10,2013-04-12 21:14:00,
2013-04-12 17:29:00,75.3,74.0,29.76,SSE,165,15.0,-999.0,95,-99.99,,,0.00,weatherlink.com 1.10,2013-04-12 21:29:00,
2013-04-12 17:44:00,75.3,74.0,29.75,South,179,4.0,-999.0,94,-99.99,,,0.00,weatherlink.com 1.10,2013-04-12 21:44:00,
2013-04-12 17:59:00,75.3,74.0,29.75,SSW,199,9.0,-999.0,94,-99.99,,,0.00,weatherlink.com 1.10,2013-04-12 21:59:00,
2013-04-12 18:14:00,75.2,73.0,29.75,SSW,203,20.0,-999.0,94,-99.99,,,0.00,weatherlink.com 1.10,2013-04-12 22:14:00,
2013-04-12 18:44:00,75.2,73.0,29.75,SSE,165,14.0,-999.0,94,-99.99,,,0.00,weatherlink.com 1.10,2013-04-12 22:44:00,
2013-04-12 18:59:00,75.3,74.0,29.75,SSW,192,6.0,-999.0,94,-99.99,,,0.00,weatherlink.com 1.10,2013-04-12 22:59:00,
2013-04-12 19:14:00,75.1,73.0,29.76,South,190,11.0,-999.0,94,-99.99,,,0.00,weatherlink.com 1.10,2013-04-12 23:14:00,
2013-04-12 19:29:00,75.2,73.0,29.79,SW,226,2.0,-999.0,94,-99.99,,,0.00,weatherlink.com 1.10,2013-04-12 23:29:00,
2013-04-12 19:44:00,74.6,72.0,29.81,SSW,194,2.0,-999.0,92,-99.99,,,0.00,weatherlink.com 1.10,2013-04-12 23:44:00,
2013-04-12 19:59:00,74.1,71.0,29.82,SSW,200,1.0,-999.0,91,-99.99,,,0.00,weatherlink.com 1.10,2013-04-12 23:59:00,
2013-04-12 20:14:00,73.7,70.0,29.82,SSW,200,1.0,-999.0,89,-99.99,,,0.00,weatherlink.com 1.10,2013-04-13 00:14:00,
2013-04-12 20:29:00,74.2,68.0,29.84,NNW,340,5.0,-999.0,82,-99.99,,,0.00,weatherlink.com 1.10,2013-04-13 00:29:00,
2013-04-12 20:44:00,74.4,69.0,29.84,WNW,298,1.0,-999.0,83,-99.99,,,0.00,weatherlink.com 1.10,2013-04-13 00:44:00,
2013-04-12 20:59:00,74.5,70.0,29.82,NW,311,3.0,-999.0,85,-99.99,,,0.00,weatherlink.com 1.10,2013-04-13 00:59:00,
2013-04-12 21:14:00,74.2,70.0,29.82,North,355,4.0,-999.0,87,-99.99,,,0.00,weatherlink.com 1.10,2013-04-13 01:14:00,
2013-04-12 21:29:00,74.0,70.0,29.83,North,5,3.0,-999.0,88,-99.99,,,0.00,weatherlink.com 1.10,2013-04-13 01:29:00,
2013-04-12 21:44:00,73.9,71.0,29.84,North,5,2.0,-999.0,89,-99.99,,,0.00,weatherlink.com 1.10,2013-04-13 01:44:00,
2013-04-12 21:59:00,73.6,71.0,29.86,North,349,4.0,-999.0,90,-99.99,,,0.00,weatherlink.com 1.10,2013-04-13 01:59:00,
2013-04-12 22:14:00,73.3,70.0,29.86,NNW,329,2.0,-999.0,90,-99.99,,,0.00,weatherlink.com 1.10,2013-04-13 02:14:00,
2013-04-12 22:29:00,73.0,70.0,29.84,NNW,339,4.0,-999.0,91,-99.99,,,0.00,weatherlink.com 1.10,2013-04-13 02:29:00,
2013-04-12 22:44:00,72.8,70.0,29.85,North,360,4.0,-999.0,91,-99.99,,,0.00,weatherlink.com 1.10,2013-04-13 02:44:00,
2013-04-12 22:59:00,72.7,70.0,29.85,North,5,5.0,-999.0,91,-99.99,,,0.00,weatherlink.com 1.10,2013-04-13 02:59:00,
2013-04-12 23:14:00,72.7,70.0,29.85,NNE,30,3.0,-999.0,91,-99.99,,,0.00,weatherlink.com 1.10,2013-04-13 03:14:00,
2013-04-12 23:29:00,72.8,70.0,29.86,NE,34,2.0,-999.0,91,-99.99,,,0.00,weatherlink.com 1.10,2013-04-13 03:29:00,
2013-04-12 23:44:00,72.6,70.0,29.86,North,5,4.0,-999.0,91,-99.99,,,0.00,weatherlink.com 1.10,2013-04-13 03:44:00,
2013-04-12 23:59:00,72.5,70.0,29.87,NNW,331,4.0,-999.0,91,-99.99,,,0.00,weatherlink.com 1.10,2013-04-13 03:59:00,